GW0543 Weather Reports


time (UTC)temp
C
wind
direction
speed
KPH
gust
KPH
rain 1hr
cm
rain 24hr
cm
rain mn
cm
humidity
%
barometer
mb
20260510041555 11 0 0.0 0.0 0.00 0.61 0.03 96 1011.5
20260510040058 11 0 0.0 0.0 0.00 0.61 0.03 95 1011.6
20260510034553 11 0 0.0 3.2 0.00 0.61 0.03 95 1011.6
20260510033102 11 40 0.0 6.4 0.00 0.61 0.03 95 1011.8
20260510031558 11 5 1.6 4.8 0.00 0.61 0.03 95 1011.9
20260510030052 11 0 0.0 0.0 0.00 0.61 0.03 96 1012.0
20260510024553 11 0 0.0 0.0 0.00 0.61 0.03 96 1012.0
20260510023056 11 0 0.0 0.0 0.00 0.61 0.03 96 1011.7
20260510021556 11 0 0.0 0.0 0.00 0.61 0.03 96 1011.7
20260510020059 11 0 0.0 4.8 0.00 0.61 0.03 95 1011.7
20260510014549 11 0 0.0 0.0 0.00 0.61 0.03 95 1011.9
20260510013055 12 0 0.0 0.0 0.00 0.61 0.03 95 1012.0
20260510011559 12 0 0.0 0.0 0.00 0.61 0.03 95 1012.0
20260510010055 12 0 0.0 4.8 0.00 0.61 0.03 94 1012.2
20260510004559 12 236 0.0 4.8 0.00 0.61 0.03 95 1012.3
20260510003052 13 150 1.6 4.8 0.00 0.61 0.03 95 1012.5
20260510001550 13 0 0.0 8.0 0.00 0.61 0.03 95 1012.7
20260510000059 13 166 1.6 6.4 0.00 0.61 0.03 95 1012.9
20260509234552 13 0 0.0 3.2 0.00 0.61 0.03 95 1013.4
20260509233053 13 0 0.0 0.0 0.00 0.58 0.00 95 1013.5
20260509231552 13 0 0.0 0.0 0.00 0.58 0.00 95 1013.7
20260509230055 13 0 0.0 0.0 0.00 0.58 0.00 95 1013.8
20260509224552 13 0 0.0 0.0 0.03 0.58 0.00 94 1013.7
20260509223056 13 0 0.0 3.2 0.00 0.56 0.00 94 1013.8
20260509221554 13 0 1.6 4.8 0.03 0.56 0.00 94 1013.7
20260509220056 13 46 0.0 0.0 0.05 0.56 0.00 94 1013.8
20260509214610 13 0 0.0 0.0 0.03 0.56 0.56 94 1013.7
20260509213056 13 0 0.0 3.2 0.05 0.56 0.56 93 1013.6
20260509211554 13 46 0.0 4.8 0.05 0.53 0.53 93 1013.4
20260509210100 13 0 0.0 6.4 0.03 0.51 0.51 93 1013.1
20260509204553 13 47 3.2 8.0 0.03 0.51 0.51 92 1012.9
20260509203103 13 321 0.0 4.8 0.03 0.48 0.48 93 1012.8
20260509201553 13 0 0.0 4.8 0.03 0.46 0.46 93 1012.5
20260509200056 13 0 0.0 0.0 0.10 0.46 0.46 92 1012.1
20260509194553 13 0 0.0 4.8 0.20 0.46 0.46 92 1012.0
20260509193058 13 42 3.2 9.7 0.25 0.46 0.46 92 1011.2
20260509191601 13 0 0.0 3.2 0.28 0.43 0.43 93 1011.6
20260509190055 13 155 0.0 3.2 0.25 0.36 0.36 91 1012.4
20260509184600 13 0 1.6 8.0 0.18 0.25 0.25 90 1012.8
20260509183059 14 155 4.8 11.3 0.18 0.18 0.18 90 1013.2
20260509181554 14 159 3.2 11.3 0.15 0.15 0.15 90 1013.3
20260509180054 15 165 4.8 12.9 0.08 0.08 0.08 89 1013.0
20260509174619 15 146 3.2 9.7 0.05 0.05 0.05 88 1012.9
20260509173054 16 146 4.8 9.7 0.00 0.00 0.00 84 1012.9
20260509171550 16 209 1.6 9.7 0.00 0.00 0.00 82 1012.8
20260509170100 16 179 1.6 8.0 0.00 0.00 0.00 78 1012.7
20260509164553 17 219 0.0 8.0 0.00 0.00 0.00 77 1012.5
20260509163057 17 202 1.6 6.4 0.00 0.00 0.00 74 1012.0
20260509161556 17 159 0.0 6.4 0.00 0.00 0.00 75 1011.6
20260509160054 17 190 0.0 9.7 0.00 0.00 0.00 75 1011.9
20260509154552 17 0 3.2 9.7 0.00 0.00 0.00 73 1012.1
20260509153115 18 236 1.6 11.3 0.00 0.00 0.00 72 1012.0
20260509151556 18 159 3.2 12.9 0.00 0.00 0.00 70 1012.5
20260509150055 18 184 3.2 9.7 0.00 0.00 0.00 67 1012.9
20260509144553 19 0 3.2 8.0 0.00 0.00 0.00 67 1012.8
20260509143056 18 172 1.6 14.5 0.00 0.00 0.00 64 1013.0
20260509141555 18 181 4.8 16.1 0.00 0.00 0.00 70 1013.2
20260509140052 19 0 3.2 11.3 0.00 0.00 0.00 66 1013.1
20260509134552 18 221 3.2 11.3 0.00 0.00 0.00 69 1013.1
20260509133054 18 252 4.8 12.9 0.00 0.00 0.00 71 1013.1
20260509131552 18 260 3.2 11.3 0.00 0.00 0.00 72 1013.2
20260509130107 18 153 3.2 16.1 0.00 0.00 0.00 73 1013.7
20260509124556 18 279 6.4 17.7 0.00 0.00 0.00 72 1013.9
20260509123100 18 178 4.8 14.5 0.00 0.00 0.00 71 1014.2
20260509121627 19 4.8 8.0 0.00 0.00 0.00 66 1014.2
20260509120059 19 169 8.0 9.7 0.00 0.00 0.00 65 1014.0
20260509114603 20 4.8 14.5 0.00 0.00 0.00 69 1014.1
20260509113102 19 350 8.0 11.3 0.00 0.00 0.00 68 1014.1
20260509111556 20 8.0 11.3 0.00 0.00 0.00 66 1014.2
20260509110105 20 4.8 11.3 0.00 0.00 0.00 68 1014.3
20260509104600 -17 243 6.4 6.4 0.00 0.00 0.00 67 1014.6
20260509103103 20 240 9.7 14.5 0.00 0.00 0.00 65 1014.4
20260509101605 20 236 6.4 19.3 0.00 0.00 0.00 68 1014.3
20260509100054 19 215 3.2 8.0 0.00 0.00 0.00 72 1014.1
20260509094603 18 210 3.2 12.9 0.00 0.00 0.00 75 1014.2
20260509093052 18 213 3.2 12.9 0.00 0.00 0.00 74 1014.2
20260509091605 18 186 3.2 9.7 0.00 0.00 0.00 75 1014.1
20260509090105 17 226 6.4 6.4 0.00 0.00 0.00 79 1014.1
20260509084559 17 8.0 9.7 0.00 0.00 0.00 79 1014.4
20260509083102 17 3.2 6.4 0.00 0.00 0.00 80 1014.5
20260509081556 17 284 1.6 9.7 0.00 0.00 0.00 81 1014.6
20260509080100 17 235 1.6 8.0 0.00 0.00 0.00 81 1014.5
20260509074557 16 198 4.8 8.0 0.00 0.00 0.00 82 1014.6
20260509073057 16 214 3.2 6.4 0.00 0.00 0.00 84 1014.8
20260509071556 15 232 1.6 6.4 0.00 0.00 0.00 86 1014.7
20260509070057 15 240 0.0 4.8 0.00 0.00 0.00 89 1014.7
20260509064553 13 211 0.0 4.8 0.00 0.00 0.00 90 1014.7
20260509063059 13 0 0.0 3.2 0.00 0.00 0.00 91 1014.9
20260509061554 13 211 1.6 3.2 0.00 0.00 0.00 91 1015.2
20260509060110 12 0 0.0 4.8 0.00 0.00 0.00 92 1015.2
20260509054606 12 0 0.0 4.8 0.00 0.00 0.00 93 1014.9
20260509053123 12 0 1.6 4.8 0.00 0.00 0.00 93 1014.9
20260509051559 11 0 0.0 0.0 0.00 0.00 0.00 93 1014.8
20260509050100 11 0 0.0 1.6 0.00 0.00 0.00 93 1014.7
20260509044659 12 0 0.0 3.2 0.00 0.00 0.00 93 1014.6
20260509043135 12 0 0.0 4.8 0.00 0.00 0.00 93 1014.6